This is the latest recevied weather packets stored in our database for station/object OE-11141. If no packets are shown the sender has not sent any weather packets the latest 10 day(s).
| Time | Temp. | Humidity | Pressure | Rain* | Wind** | Luminosity | Snow |
|---|---|---|---|---|---|---|---|
| 1787673905 | 17.22° C | 87% | 1015 hPa | 0.51 mm | - | 32 W/m² | - |
| 1787673305 | 17.22° C | 85% | 1014.9 hPa | 0 mm | - | 32 W/m² | - |
| 1787672478 | 17.22° C | 84% | 1014.7 hPa | 0 mm | - | 26 W/m² | - |
| 1787672105 | 17.22° C | 82% | 1014.6 hPa | 0 mm | - | 26 W/m² | - |
| 1787671505 | 17.78° C | 79% | 1014.3 hPa | 0 mm | - | 32 W/m² | - |
| 1787670678 | 17.78° C | 76% | 1013.9 hPa | 0 mm | - | 32 W/m² | - |
| 1787670304 | 18.33° C | 76% | 1013.8 hPa | 0 mm | - | 64 W/m² | - |
| 1787669705 | 18.33° C | 75% | 1013.6 hPa | 0 mm | - | 64 W/m² | - |
| 1787668878 | 18.33° C | 75% | 1013.4 hPa | 0 mm | - | 64 W/m² | - |
| 1787668505 | 18.33° C | 75% | 1013.2 hPa | 0 mm | - | 77 W/m² | - |
| 1787667904 | 18.33° C | 74% | 1013.1 hPa | 0 mm | - | 102 W/m² | - |
| 1787667077 | 18.33° C | 74% | 1013 hPa | 0 mm | - | 90 W/m² | - |
| 1787666705 | 18.33° C | 74% | 1012.7 hPa | 0 mm | - | 109 W/m² | - |
| 1787666105 | 18.33° C | 74% | 1012.5 hPa | 0 mm | - | 115 W/m² | - |
| 1787665278 | 18.33° C | 73% | 1012.3 hPa | 0 mm | - | 153 W/m² | - |
| 1787664905 | 18.89° C | 72% | 1012.1 hPa | 0 mm | - | 211 W/m² | - |
| 1787664305 | 18.89° C | 71% | 1012 hPa | 0 mm | - | 428 W/m² | - |
| 1787663478 | 19.44° C | 71% | 1011.9 hPa | 0 mm | - | 543 W/m² | - |
| 1787663105 | 18.89° C | 72% | 1012 hPa | 0 mm | - | 249 W/m² | - |
| 1787662505 | 18.89° C | 71% | 1011.9 hPa | 0 mm | - | 192 W/m² | - |
| 1787661678 | 18.89° C | 70% | 1011.7 hPa | 0 mm | - | 173 W/m² | - |
| 1787661305 | 18.89° C | 70% | 1011.7 hPa | 0 mm | - | 230 W/m² | - |
| 1787660705 | 19.44° C | 69% | 1011.5 hPa | 0 mm | - | 262 W/m² | - |
| 1787660117 | 19.44° C | 68% | 1011.3 hPa | 0 mm | - | 288 W/m² | - |
| 1787659505 | 19.44° C | 68% | 1011.2 hPa | 0 mm | - | 281 W/m² | - |
* Rain latest hour (hover to see other rain measurements)
** Current wind speed in m/s (hover to see current wind gust speed)